Find GPS IIA-18

NORAD ID: 24320 Int'l Des: 1996-056 Owner: AFSMC Country: US Constellation: GPS operational
MEOCIRCULAR

リアルタイム位置

3D地球を読み込み中...

GPS IIA-18について

説明を読み込み中...

次回通過

Passes for default location (London). Set your location on the main map for personalized predictions.

高度履歴

Loading altitude history...

軌道要素

1 24320U 96056A 26121.46999447 -.00000029 00000-0 00000+0 0 9992
2 24320 53.7355 238.4150 0030538 215.3217 136.2937 1.86499081209631
Epoch: May 1, 2026 • Age: 11 hours

現在のステータス

高度 21511.1 km
速度 3.78 km/s
衛星直下点 -43.25°S, 0.35°W
打ち上げ日 Sep 12, 1996
運用期間 29.6 years
タイプ navigation

技術仕様

分類 Payload
質量 860.00 kg
乾燥質量 860.00 kg
総質量 1881.00 kg
長さ 2.40 m
直径 1.80 m
スパン 5.30 m
形状 Box + 2 Pan
製造者 RWISB
バスタイプ GPS IIA
フェーズステータス In Orbit
所有者/国 AFSMC/US

Most Searched